{"data":{"norad_id":54818,"intl_designator":"2022-176A","name":"GAOFEN-11 04","alt_names":[],"object_type":"PAYLOAD","status":"ACTIVE","operator":null,"country":"PRC","launch_date":"2022-12-27","launch_site_code":"TAISC","launch_vehicle":null,"mission":null,"orbit_class":"UNKNOWN","rcs_meters":null,"size_class":null,"mass_kg":null,"dimensions":null,"purposes":[],"wikipedia_slug":null,"has_3d_model":false,"image_url":null,"decayed_at":null,"tle_current":{"epoch":"2026-05-25T04:42:54.244224Z","epoch_age_seconds":57759,"freshness":"FRESH","line1":"1 54818U 22176A   26145.19646116  .00005405  00000+0  22889-3 0  9991","line2":"2 54818  97.4196 278.6546 0007651  51.1720 309.0199 15.23561723189753","mean_motion":15.23561723,"eccentricity":0.0007651,"inclination_deg":97.4196,"raan_deg":278.6546,"arg_perigee_deg":51.172,"mean_anomaly_deg":309.0199,"bstar":0.00022889,"rev_number":18975,"period_min":94.51537002154,"perigee_km":489.84898061225,"apogee_km":500.36641965239,"semimajor_km":6873.2447001323,"source":"CELESTRAK","updated_at":"2026-05-25T13:37:58.769484Z"}}}